Zurück zum Katalog

COSMOS 337

AktivMilitärLEO
NORAD 4384·PAYLOAD·🇷🇺 Russia

Gestartet Apr 25, 1970 von Plesetsk Cosmodrome

Loading…

Nächste Überflüge (nächste 24 Stunden)

TLE

AktuellSource: Space-Track

Epoche: Sep 14, 2026, 13:48 UTC

1 04384U 70036B   26257.57524721 -.00000003  00000-0  95571-4 0  9995
2 04384  74.0284 299.8920 0053285 172.0731 342.5670 12.39255423550800

Verfolge COSMOS 337 in Echtzeit mit AllMySat

Download on the App Store